Regional Weather Roundup
Issued by NWS Sioux Falls, SD

Home | Current Version | Previous Version | Text Only | Print | Product List | Glossary On
Versions: 1 2 3 4 5 6 7 8 9 10 11 12 13 14 15 16 17 18 19 20 21 22 23 24 25 26 27 28 29 30 31 32 33 34 35 36 37 38 39 40 41 42 43 44 45 46 47 48 49 50
000
ASUS43 KFSD 141502
RWRFSD

WEATHER ROUNDUP FOR SE SOUTH DAKOTA/SW MINNESOTA/NW IOWA
NATIONAL WEATHER SERVICE SIOUX FALLS SD
900 AM CST THU DEC 14 2017

NOTE: "FAIR" INDICATES FEW OR NO CLOUDS BELOW 12,000 FEET WITH NO
SIGNIFICANT WEATHER AND OR OBSTRUCTIONS TO VISIBILITY.


SDZ038>040-050-052>070-141600-
SOUTHEAST SOUTH DAKOTA

CITY           SKY/WX    TMP DP  RH WIND       PRES   REMARKS
BROOKINGS      CLOUDY    27  25  92 CALM      30.00R
CHAMBERLAIN    CLOUDY    33  33 100 W3        30.04R
HURON          LGT SNOW  30  27  88 NW7       30.03R FOG     WCI  23
MADISON        CLOUDY    28  28 100 NW5       30.00R WCI  23
MITCHELL       CLOUDY    31  26  82 W7        30.04R WCI  24
SIOUX FALLS    CLOUDY    30  27  88 S5        30.01S WCI  25
WINNER         LGT SNOW  34  33  96 NW12      30.05R FOG     WCI  25
YANKTON        CLEAR     28  24  85 W6        30.04  WCI  22
$$

MNZ071-072-080-081-089-090-097-098-141600-
SOUTHWEST MINNESOTA

CITY           SKY/WX    TMP DP  RH WIND       PRES   REMARKS
FAIRMONT       CLOUDY    20  15  81 S7        30.05R WCI  11
JACKSON        CLOUDY    21  19  93 MISG      30.03R
LUVERNE        CLOUDY    27  23  86 S5        30.02S WCI  21
MARSHALL       MOCLDY    22  19  89 CALM      30.03R
MONTEVIDEO     CLOUDY    21  18  86 N6        30.04R WCI  14
PIPESTONE      CLOUDY    27  25  93 CALM      29.99S
REDWOOD FALLS  CLOUDY    21  16  81 NW6       30.03R WCI  13
WINDOM           N/A     21  10  63 W5        30.02R WCI  15
WORTHINGTON    CLOUDY    22  19  89 S6        30.02R WCI  14
$$

IAZ001>003-012>014-020>022-031-032-NEZ013-014-SDZ071-141600-
NORTHWEST IOWA

CITY           SKY/WX    TMP DP  RH WIND       PRES   REMARKS
CHEROKEE       CLOUDY    25  23  93 CALM      30.05R
DENISON        CLOUDY    27  23  86 CALM      30.06S
ESTHERVILLE    CLOUDY    21  18  88 NW9       30.04R WCI  11
LE MARS        CLOUDY    28  25  86 SE5       30.04R WCI  23
ORANGE CITY    CLOUDY    27  27 100 CALM      30.03S
SHELDON        CLOUDY    25  23  93 S6        30.01F WCI  18
SIOUX CITY     CLOUDY    30  24  78 SE6       30.05R WCI  24
SPENCER        CLOUDY    23  18  81 CALM      30.04S
STORM LAKE     PTSUNNY   25  21  86 CALM      30.03S
$$

ABBREVIATIONS USED IN REMARKS
   TC - TEMPERATURE IN CELSIUS
  WCI - WIND CHILL INDEX
   HX - HEAT INDEX
  VSB - VISIBILITY




USA.gov is the U.S. government's official web portal to all federal, state and local government web resources and services.